This is the latest recevied weather packets stored in our database for station/object N4OOJ-13. If no packets are shown the sender has not sent any weather packets the latest 10 day(s).
| Time | Temp. | Humidity | Pressure | Rain* | Wind** | Luminosity | Snow |
|---|---|---|---|---|---|---|---|
| 1777991421 | 25.56° C | 54% | 1019.9 hPa | 0 mm | - | - | - |
| 1777990817 | 25° C | 57% | 1019.9 hPa | 0 mm | - | - | - |
| 1777989629 | 23.89° C | 60% | 1019.9 hPa | 0 mm | - | - | - |
| 1777989027 | 26.11° C | 53% | 1019.8 hPa | 0 mm | - | - | - |
| 1777988432 | 26.11° C | 55% | 1019.9 hPa | 0 mm | - | - | - |
| 1777987822 | 25.56° C | 56% | 1019.9 hPa | 0 mm | - | - | - |
| 1777987217 | 24.44° C | 63% | 1019.8 hPa | 0 mm | - | - | - |
| 1777986630 | 23.89° C | 67% | 1019.9 hPa | 0 mm | - | - | - |
| 1777986025 | 23.33° C | 68% | 1019.8 hPa | 0 mm | - | - | - |
| 1777985419 | 21.11° C | 76% | 1019.7 hPa | 0 mm | - | - | - |
| 1777984832 | 20.56° C | 77% | 1019.8 hPa | 0 mm | - | - | - |
| 1777984231 | 18.89° C | 79% | 1019.9 hPa | 0 mm | - | - | - |
| 1777983625 | 17.22° C | 82% | 1019.9 hPa | 0 mm | - | - | - |
| 1777983023 | 15.56° C | 87% | 1019.9 hPa | 0 mm | - | - | - |
| 1777982418 | 13.89° C | 91% | 1019.8 hPa | 0 mm | - | - | - |
| 1777981817 | 12.78° C | 98% | 1019.8 hPa | 0 mm | - | - | - |
| 1777981217 | 11.67° C | 99% | 1019.7 hPa | 0 mm | - | - | - |
| 1777980631 | 9.44° C | 99% | 1019.5 hPa | 0 mm | - | - | - |
| 1777980025 | 8.89° C | 99% | 1019.5 hPa | 0 mm | - | - | - |
| 1777979420 | 8.89° C | 99% | 1019.3 hPa | 0 mm | - | - | - |
| 1777978833 | 8.89° C | 99% | 1019.2 hPa | 0 mm | - | - | - |
| 1777978228 | 8.89° C | 99% | 1019.1 hPa | 0 mm | - | - | - |
| 1777977622 | 8.89° C | 99% | 1019.1 hPa | 0 mm | - | - | - |
| 1777977021 | 8.89° C | 99% | 1018.9 hPa | 0 mm | - | - | - |
| 1777976416 | 8.89° C | 99% | 1018.7 hPa | 0 mm | - | - | - |
* Rain latest hour (hover to see other rain measurements)
** Current wind speed in m/s (hover to see current wind gust speed)